Location: Vancouver
(49.2500°N, 123.1330°W)
Time: 22:51:02
(UTC-08:00)

Oscar 11 - Visible Passes

Search period start: 12 February 2016 00:00
Search period end: 22 February 2016 00:00
Orbit: 615 x 627 km, 97.8° (Epoch: 12 February)

Date Brightness Start Highest point End Pass type
(mag) Time Alt. Az. Time Alt. Az. Time Alt. Az.
12 Feb 9.8 20:45:52 12° NNW 20:45:52 12° NNW 20:46:10 10° NNW visible
13 Feb 9.4 19:26:17 11° NNE 19:26:17 11° NNE 19:26:27 10° NNE visible
13 Feb 10.0 21:03:27 11° NNW 21:03:27 11° NNW 21:03:41 10° NNW visible
14 Feb 9.3 19:43:52 13° NNE 19:43:52 13° NNE 19:44:28 10° N visible
14 Feb 10.1 21:21:02 10° NNW 21:21:02 10° NNW 21:21:06 10° NNW visible
15 Feb 9.3 20:01:27 15° N 20:01:27 15° N 20:02:18 10° N visible
16 Feb 9.3 20:19:02 16° N 20:19:02 16° N 20:20:02 10° N visible
17 Feb 9.3 20:36:36 17° N 20:36:36 17° N 20:37:40 10° N visible
18 Feb 9.2 19:17:00 12° NNE 19:17:00 12° NNE 19:17:40 10° NNE visible
18 Feb 9.5 20:54:11 17° NNW 20:54:11 17° NNW 20:55:13 10° NNW visible
19 Feb 9.1 19:34:35 15° NNE 19:34:35 15° NNE 19:35:48 10° NNE visible
19 Feb 9.7 21:11:45 16° NNW 21:11:45 16° NNW 21:12:41 10° NNW visible
20 Feb 8.9 19:52:10 18° NNE 19:52:10 18° NNE 19:53:42 10° N visible
20 Feb 9.9 21:29:20 14° NW 21:29:20 14° NW 21:30:03 10° NNW visible
21 Feb 8.8 20:09:44 22° NNE 20:09:44 22° NNE 20:11:28 10° N visible
21 Feb 10.2 21:46:54 12° NW 21:46:54 12° NW 21:47:16 10° NW visible
